Location: Newark
(48.8833°N, 0.9236°W)
Time: 16:41:05
(UTC+00:00)

Tiros 1 despin weight - Pass Details

Date: 21 November 2019
Orbit: 594 x 642 km, 48.2° (Epoch: 05 December)

Event Time Altitude Azimuth Distance (km) Brightness Sun altitude
Rises 14:46:02 0° 263° (W) 2,828 ? 10.8°
Reaches altitude 10° 14:48:18 10° 262° (W) 1,929 ? 10.5°
Maximum altitude 14:52:43 82° 176° (S) 610 ? 10.0°
Drops below altitude 10° 14:57:12 10° 89° (E) 1,949 ? 9.5°
Sets 14:59:30 0° 88° (E) 2,860 ? 9.3°
